Tracking 28920 objects as of 24-May-2024
HD Live streaming from Space Station
objects crossing your sky now

MOLNIYA 3-27

Track MOLNIYA 3-27 now!
MOLNIYA 3-27 is classified as:


NORAD ID: 16393
Int'l Code: 1985-117A
Perigee: 856.2 km
Apogee: 37,530.3 km
Inclination: 63.5 °
Period: 678.0 minutes
Semi major axis: 25564 km
RCS: 15.138 m2 (large)
Launch date: December 24, 1985
Source: Commonwealth of Independent States (former USSR) (CIS)
Launch site: PLESETSK MISSILE AND SPACE COMPLEX (PKMTR)
Your satellite tracking list
Your tracking list is empty




NASA's NSSDC Master Catalog

Two Line Element Set (TLE):
1 16393U 85117A   24142.56373045 -.00000160  00000-0  00000-0 0  9998
2 16393  63.4696 341.5090 7172924 245.6717  27.2540  2.12399599289136
Source of the keplerian elements: AFSPC